Regional Weather Roundup
Issued by NWS

Home | Current Version | Previous Version | Text Only | Print | Product List | Glossary Off
Versions: 1 2 3 4 5 6 7 8 9 10 11 12 13 14 15 16 17 18 19 20 21 22 23 24 25 26 27 28 29 30 31 32 33 34 35 36 37 38 39 40 41 42 43 44 45 46 47 48 49 50

000
ASUS44 KMEG 201300
RWRTN
TENNESSEE HOURLY STATE WEATHER ROUNDUP
NATIONAL WEATHER SERVICE MEMPHIS TN
700 AM CST TUE FEB 20 2018

TNZ002-004-019-021-049-052-054-088>092-201400-
WEST TENNESSEE

CITY           SKY/WX    TMP DP  RH WIND       PRES   REMARKS
MEMPHIS INTL   FAIR      66  61  84 S16G23    30.12R
JACKSON        FAIR      66  59  78 S9        30.13R
DYERSBURG      FAIR      66  58  75 S6          N/A
$$

TNZ008-025-027-028-033-062-065-066-201400-
NORTH MIDDLE TENNESSEE

CITY           SKY/WX    TMP DP  RH WIND       PRES   REMARKS
NASHVILLE      MOCLDY    64  57  78 S8        30.22R
CLARKSVILLE    FAIR      66  52  60 S13       30.16R
SMYRNA         FAIR      64  58  80 S9        30.23R
CROSSVILLE     FAIR      58  55  90 S8        30.32R
$$

TNZ061-075-076-078-094-096-097-201400-
SOUTH MIDDLE TENNESSEE

CITY           SKY/WX    TMP DP  RH WIND       PRES   REMARKS
WINCHESTER     CLEAR     61  55  82 SE15      30.27S
$$

TNZ017-018-042-046-047-201400-
NORTHEAST TENNESSEE

CITY           SKY/WX    TMP DP  RH WIND       PRES   REMARKS
TRI CITIES     FAIR      51  51 100 CALM      30.35R
$$

TNZ012-013-036-069-073-074-201400-
CENTRAL EAST TENNESSEE

CITY           SKY/WX    TMP DP  RH WIND       PRES   REMARKS
KNOXVILLE      FAIR      55  55 100 N3        30.31R
OAK RIDGE      FAIR      57  57 100 VRB3      30.33R
$$

TNZ083-085-099-201400-
SOUTHEAST TENNESSEE

CITY           SKY/WX    TMP DP  RH WIND       PRES   REMARKS
CHATTANOOGA    CLOUDY    57  56  96 CALM      30.33R FOG
$$

SKY/WX REPORTED AS FAIR MEANS FEW OR NO CLOUDS BELOW
12 THOUSAND FEET.





USA.gov is the U.S. government's official web portal to all federal, state and local government web resources and services.